CENTISPACE-2 S4

导读

CENTISPACE-2 S4(NORAD编号68353)是中国CentiSpace低轨导航增强星座中的卫星,隶属于北斗体系原生增强系统,承担全球高精度导航增强服务任务。该卫星随星座组批发射入轨,运行于低地球轨道,通过播发增强信号提升现有GNSS系统的定位精度与收敛速度,可支持自动驾驶、高精度农业等民用领域,同时具备军民融合应用价值。CentiSpace星座规划规模达数百颗,CENTISPACE-2 S4是其组网建设过程中的重要组成部分,推动着我国低轨导航增强网络的逐步完善。

基本信息
目录编号:
68353
目录名称:
CENTISPACE-2 S4
国际标识:
2026-060D
轨道中心:
EARTH
卫星名称:
CENTISPACE-2 S4
卫星全名:
CENTISPACE-2 S4
卫星状态:
在轨 (已飞行175 天)
发射日期:
2026-03-22 UTC
国别 :
中国 (CN)
星等 :
--
该卫星已列入 空间交会检测服务 Space Conjunction Data Service (SCDS) ,当前飞行风险评估等级: 无高风险
轨道信息
数据来源 国际轨道数据
星历时间: 2026-09-12T06:51:24+0800
1天前
查看轨道信息
半长轴: 7180.372km
偏心率: 0.000883
轨道倾角: 54.982°
近地点辐角 281.507°
升交点赤经 58.485°
平近点角 78.492°
近地点: 795.894km
远地点: 808.576km
周期: 100.921分钟
每日圈数: 14.268635
详细信息
使用方式:
暂无
2D轨道图
3D轨道图
轨道高度分析图
轨道倾角分析图
轨道综合分析图
查看轨道综合分析图
交会数据列表
事件ID 空间交会对象 最接近时刻(TCA) 交会距离 交会风险概率(CRP) 交会风险指数(CRI) 操作
CDM_260906-163603-194906-835321
2026-09-06T
16:36:43+0000
2.468 km
极远距离
1.751433E-6 低风险 0.4
CDM_260905-181502-831706-835323
2026-09-05T
18:15:05+0000
2.766 km
极远距离
1.47409E-6 低风险 0.38
与全量物体交会距离演化趋势
与全量物体交会风险概率演化趋势